Regional Weather Roundup
Issued by NWS

Home | Current Version | Previous Version | Text Only | Print | Product List | Glossary On
Versions: 1 2 3 4 5 6 7 8 9 10 11 12 13 14 15 16 17 18 19 20 21 22 23 24 25 26 27 28 29 30 31 32 33 34 35 36 37 38 39 40 41 42 43 44 45 46 47 48 49 50
000
ASUS43 KMPX 011401
RWRMN
WEATHER ROUNDUP FOR MINNESOTA
NATIONAL WEATHER SERVICE TWIN CITIES/CHANHASSEN MN
900 AM CDT MON JUN 01 2015


NOTE: "FAIR" INDICATES FEW OR NO CLOUDS BELOW 12,000 FEET WITH NO
SIGNIFICANT WEATHER AND/OR OBSTRUCTIONS TO VISIBILITY. N/A MEANS
CURRENT SKY AND/OR WEATHER CONDITIONS ARE NOT AVAILABLE.

MNZ060>063-068>070-011500-
   Twin Cities Metro

CITY           SKY/WX    TMP DP  RH WIND       PRES   REMARKS
TWIN CITIES    PTSUNNY   56  41  57 E12       30.27S
ST PAUL        PTSUNNY   56  41  57 SE10      30.28S
CRYSTAL        PTSUNNY   57  42  57 SE8       30.26S
BLAINE         PTSUNNY   57  41  54 SE9       30.27S
LAKEVILLE      MOSUNNY   54  43  66 SE7       30.26S
EDEN PRAIRIE   PTSUNNY   57  42  57 SE12      30.25S
SOUTH ST PAUL  PTSUNNY   56  38  51 SE7       30.28R
LAKE ELMO      FAIR      54  37  54 SE6       30.29S
$$
MNZ001>005-007-008-013>017-022>024-027-028-011500-
   Northwest Minnesota

CITY           SKY/WX    TMP DP  RH WIND       PRES   REMARKS
BEMIDJI        SUNNY     53  40  61 SE10      30.21F
HALLOCK        CLOUDY    57  43  58 S22       30.10F
ROSEAU         MOSUNNY   55  43  62 S13       30.16F
WARROAD        SUNNY     55  45  67 S10       30.18F
THIEF RVR FALL CLOUDY    55  41  58 SE12      30.15F
CROOKSTON      MOSUNNY   59  43  55 S20G25    30.13F
FOSSTON        CLOUDY    55  43  62 SE12      30.17F
DETROIT LAKES  SUNNY     54  43  66 SE12      30.18F
MOORHEAD       CLOUDY    57  45  62 S18G25    30.13F
PARK RAPIDS    CLOUDY    53  41  63 SE14      30.20F
MAHNOMEN       CLOUDY    53  42  67 SE9G16    30.17S
$$
MNZ006-009>011-018-025>026-011500-
   North Central Minnesota

CITY           SKY/WX    TMP DP  RH WIND       PRES   REMARKS
BAUDETTE       SUNNY     53  37  54 SE12      30.20F
FLAG ISLAND    SUNNY     50  41  71 S17       30.18F
INTL FALLS     SUNNY     51  32  48 VRB5      30.25F
WASKISH        SUNNY     54  41  62 SE7       30.21F
BIG FORK       SUNNY     52  37  58 SE6       30.25F
LONGVILLE      SUNNY     52  39  62 SE5       30.23F
GRAND RAPIDS   SUNNY     48  34  57 SE8       30.27F
CRANE LAKE     SUNNY     50  30  46 SE3       30.30S
ORR            SUNNY     52  28  40 S8        30.25S
COOK           SUNNY     52  34  50 S8        30.28S
WALKER         FAIR      51  40  65 SE3       30.22F
$$
MNZ012-019>021-037-011500-
   Northeast Minnesota

CITY           SKY/WX    TMP DP  RH WIND       PRES   REMARKS
DULUTH         SUNNY     47  32  56 SE7       30.31R
HIBBING        SUNNY     50  33  52 S8        30.29F
EVELETH        SUNNY     52  34  50 S5        30.30S
DULUTH HARBOR  SUNNY     45  37  76 NE12      30.35S
TWO HARBORS    SUNNY     52  36  54 E6        30.31S
SILVER BAY     SUNNY     50  27  40 NE7       30.32R
GRAND MARAIS     N/A     44  29  55 E6        30.36R
G MARAIS ARPRT SUNNY     52  18  25 E6        30.33F HAZE
$$
MNZ029>031-032-039>041-046>048-054>057-064-011500-
   West Central Minnesota

CITY           SKY/WX    TMP DP  RH WIND       PRES   REMARKS
FERGUS FALLS   CLOUDY    57  45  62 SE14G21   30.16F
WHEATON        MOSUNNY   55  46  71 SE17      30.16F
MORRIS         CLOUDY    59  45  58 SE18G25   30.16F
ALEXANDRIA     CLOUDY    54  43  66 SE10      30.20F
ELBOW LAKE     CLOUDY    56  44  65 SE16      30.16F
WADENA         PTSUNNY   52  43  71 SE10      30.20F
GLENWOOD       PTSUNNY   55  45  67 SE13      30.20F
APPLETON       CLOUDY    59  45  58 SE14      30.16F
BENSON         CLOUDY    57  43  58 S10G16    30.18F
ORTONVILLE     CLOUDY    55  45  67 SE12      30.15F
MADISON        CLOUDY    57  46  67 SE13      30.16F
WILLMAR        FAIR      59  46  63 SE13      30.22S
$$
MNZ033>034-036-042>043-049>051-058-059-011500-
   Central Minnesota

CITY           SKY/WX    TMP DP  RH WIND       PRES   REMARKS
ST CLOUD       CLOUDY    54  45  71 SE9       30.25S
SAUK CENTRE    PTSUNNY   53  44  72 SE7       30.22S
PAYNESVILLE    PTSUNNY   52  44  74 E10       30.23S
AITKIN         SUNNY     54  37  54 SE9       30.24F
PINE RIVER     CLOUDY    52  43  71 SE10      30.26F
BRAINERD       CLOUDY    53  42  66 SE8       30.24F
STAPLES        PTSUNNY   52  41  66 SE7       30.21F
LONG PRAIRIE   CLOUDY    50  43  76 E8        30.22F
LITTLE FALLS   CLOUDY    52  41  66 SE8       30.24S
LITCHFIELD     PTSUNNY   55  48  76 SE5       30.23S
BUFFALO        PTSUNNY   56  43  63 E6        30.25F
MAPLE LAKE     PTSUNNY   57  47  70 SE5       30.25S
$$
MNZ037-044-045-052-053-011500-
   East Central Minnesota

CITY           SKY/WX    TMP DP  RH WIND       PRES   REMARKS
PRINCETON      PTSUNNY   55  45  67 SE8       30.26F
MORA           MOSUNNY   54  37  54 S6        30.29F
CAMBRIDGE      PTSUNNY   55  39  54 SE7       30.26S
RUSH CITY      MOSUNNY   53  37  55 SE3       30.29S
MOOSE LAKE     MOSUNNY   50  36  57 E5        30.28S
HINCKLEY       FAIR      54  37  54 SE8       30.28F
CLOQUET        SUNNY     48  36  61 SE7       30.30S
MCGREGOR       MOSUNNY   54  36  50 SE8       30.28F
$$
MNZ071>073-080-081-089-090-097-098-011500-
   Southwest Minnesota

CITY           SKY/WX    TMP DP  RH WIND       PRES   REMARKS
MONTEVIDEO     PTSUNNY   57  46  67 S10       30.19F
GRANITE FALLS  CLOUDY    58  45  61 SE14      30.20F
CANBY          CLOUDY    57  46  66 SE12      30.17F
MARSHALL       CLOUDY    57  43  58 S13G18    30.18S
REDWOOD FALLS  PTSUNNY   60  44  55 SE16      30.20S
OLIVIA         CLOUDY    54  41  62 SE10      30.21R
PIPESTONE      PTSUNNY   57  45  62 S12       30.17S
WINDOM         SUNNY     59  45  58 S12G17    30.21R
WORTHINGTON    CLOUDY    57  43  58 SE9       30.20S
JACKSON        PTSUNNY   57  45  62 S13       30.22S
TRACY          CLOUDY    58  46  64 S9        30.20S
SLAYTON        CLOUDY    58  46  64 SE13      30.20S
$$
MNZ065>067-074>077-082>085-091>093-011500-
   South Central Minnesota

CITY           SKY/WX    TMP DP  RH WIND       PRES   REMARKS
MANKATO        CLOUDY    55  43  62 SE12      30.24S
NEW ULM        PTSUNNY   55  43  62 SE10      30.22S
ST JAMES       MOSUNNY   59  45  58 SE14      30.23S
FAIRMONT       CLOUDY    57  41  54 SE13      30.22S
GLENCOE        PTSUNNY   60  47  61 SE10      30.23F
FARIBAULT      SUNNY     55  43  62 E8        30.26S
OWATONNA       SUNNY     55  41  58 SE10      30.25S
WASECA         PTSUNNY   55  41  58 SE12      30.26S
ALBERT LEA     MOSUNNY   55  41  58 S9        30.25S
$$
MNZ078>079-086>088-094>096-011500-
   Southeast Minnesota

CITY           SKY/WX    TMP DP  RH WIND       PRES   REMARKS
ROCHESTER      SUNNY     52  43  71 SE10      30.28S
RED WING       PTSUNNY   54  36  50 SE7       30.27S
STANTON        MOSUNNY   55  37  50 SE9       30.26S
DODGE CENTER   SUNNY     55  39  54 SE10      30.26S
WINONA         PTSUNNY   54  41  62 SE6       30.29F
AUSTIN         SUNNY     54  43  66 SE8       30.25S
PRESTON        SUNNY     50  40  68 SE7       30.27F
$$
ABBREVIATIONS USED IN REMARKS
   TC - TEMPERATURES IN CELSIUS
  WCI - WIND CHILL INDEX
   HX - HEAT INDEX
  VSB - VISIBILITY
$$



USA.gov is the U.S. government's official web portal to all federal, state and local government web resources and services.